Date,TemperatureHighF,TemperatureAvgF,TemperatureLowF,DewpointHighF,DewpointAvgF,DewpointLowF,HumidityHigh,HumidityAvg,HumidityLow,PressureMaxIn,PressureMinIn,WindSpeedMaxMPH,WindSpeedAvgMPH,GustSpeedMaxMPH,PrecipitationSumIn
2013-4-1,51.4,43.0,34.8,34.0,21.2,11.0,76,44,23,30.28,29.96,7,1,7,0.00
2013-4-2,54.4,42.1,32.0,23.9,19.6,17.7,59,42,24,30.34,30.24,5,0,5,0.00
2013-4-3,53.2,44.1,34.7,25.4,22.7,18.1,63,44,31,30.36,30.22,5,1,5,0.00
2013-4-4,66.3,51.6,38.6,32.8,25.7,21.0,58,38,20,30.23,30.03,7,0,7,0.00
2013-4-5,70.2,56.7,40.7,41.9,36.9,31.3,73,49,33,30.15,29.83,12,3,12,0.00
2013-4-6,77.2,64.5,57.6,49.2,43.8,37.8,59,48,28,29.83,29.60,21,7,21,0.00
2013-4-7,73.3,61.2,48.7,56.0,46.7,40.7,92,61,35,29.83,29.61,12,1,12,0.65
2013-4-8,73.4,64.2,52.7,61.7,58.3,49.9,96,82,65,29.69,29.62,13,2,13,0.46
2013-4-9,72.8,68.0,55.5,63.3,60.0,52.4,92,76,68,29.72,29.59,7,3,7,0.28
2013-4-10,55.1,42.8,38.0,52.2,41.1,36.3,95,94,90,29.90,29.67,17,3,17,1.33
2013-4-11,40.8,36.7,33.9,36.3,29.6,27.3,94,76,60,29.81,29.72,16,7,16,0.09
2013-4-12,53.9,41.3,32.4,33.5,30.0,26.3,83,65,43,30.02,29.77,16,4,16,0.00
2013-4-13,65.6,50.4,34.6,45.0,37.0,30.8,87,62,41,30.06,29.70,8,1,8,0.00
2013-4-14,73.0,63.4,55.1,55.9,47.2,33.0,75,56,39,29.70,29.44,22,6,22,0.01
2013-4-15,57.6,50.2,45.4,42.3,35.6,30.5,84,58,40,29.98,29.67,6,1,6,0.04
2013-4-16,46.9,43.6,42.3,35.0,32.9,30.6,74,66,53,30.13,29.98,8,2,8,0.00
2013-4-18,45.6,39.6,37.3,44.3,35.4,28.4,96,85,68,29.93,29.55,9,2,18,0.07
2013-4-19,53.2,41.1,32.3,29.5,25.3,18.9,78,56,31,30.10,29.90,7,3,15,0.00
2013-4-20,59.4,46.9,32.0,34.3,28.5,24.0,76,50,32,30.25,30.10,7,1,7,0.00
2013-4-21,68.0,58.2,49.6,43.8,38.8,31.4,65,49,35,30.20,30.07,15,4,15,0.00
2013-4-22,66.2,57.7,48.0,49.3,43.0,39.3,88,59,43,30.11,29.87,9,2,9,0.01
2013-4-23,47.9,37.2,34.3,44.4,34.3,31.4,93,89,75,30.19,29.97,7,2,7,0.75
2013-4-24,55.7,42.8,30.0,34.1,28.8,23.9,93,61,33,30.28,30.16,12,3,12,0.01
2013-4-25,69.3,55.2,38.9,40.0,35.2,27.7,79,50,28,30.30,30.11,12,2,12,0.00
2013-4-26,58.9,52.8,48.8,48.7,45.8,38.1,93,78,47,30.20,30.11,14,3,14,0.35
2013-4-27,54.8,51.1,47.7,49.6,48.0,46.2,100,89,81,30.18,29.99,4,0,4,0.61
2013-4-28,75.7,59.9,42.8,55.9,49.6,41.1,96,72,39,29.99,29.75,15,3,15,0.01
2013-4-29,84.8,72.1,60.9,62.9,58.0,52.1,78,63,45,29.77,29.57,14,6,14,0.00
2013-4-30,84.1,75.7,67.9,56.6,53.2,49.0,67,47,34,29.76,29.59,15,7,15,0.00